Location: Unspecified
(0.0000°N, 0.0000°E)
Time: 15:50:21
(UTC+01:00)

Daily predictions for brighter satellites

Satellite Brightness Start Highest point End
(mag) Time Altitude Azimuth Time Altitude Azimuth Time Altitude Azimuth
H-2A R/B 3.5 18:40:13 10° SW 18:44:35 80° SSE 19:19:34 10° ENE
H-2A R/B 3.5 18:40:14 10° SW 18:44:35 80° SSE 19:19:34 10° ENE
H-2A R/B 3.5 18:40:13 10° SW 18:44:35 80° SE 19:19:33 10° ENE
H-2A R/B 3.5 18:40:14 10° SW 18:44:35 80° SE 19:19:34 10° ENE
H-2A R/B 3.5 18:40:13 10° SW 18:44:35 80° SE 19:19:34 10° ENE
Palapa 6 Rocket 3.0 19:20:05 10° NW 19:23:40 44° NNE 19:27:34 10° E
CZ-4 R/B 2.2 19:20:35 10° S 19:24:19 53° WSW 19:28:03 10° NNW
ERS-2 2.7 19:21:28 10° SE 19:24:52 36° ENE 19:28:14 10° N
USA 215 3.9 19:19:21 10° ESE 19:25:03 32° NE 19:30:42 10° N
Shenzhou-11 Module 3.3 19:24:32 10° WSW 19:27:18 34° NW 19:30:05 10° NNE
Cosmos 2344 4.0 19:20:19 10° S 19:29:28 57° ESE 19:36:59 10° NE
Cosmos 1455 Rocket 3.4 19:25:36 10° N 19:29:56 71° W 19:34:16 10° S
Tiangong 1 3.8 19:28:20 10° W 19:30:03 16° SW 19:31:46 10° S
Delta 7925 Rocket 4.0 19:27:46 10° NW 19:31:55 32° NNE 19:36:24 10° E
Cosmos 1271 Rocket 3.5 19:29:44 10° NNW 19:33:31 56° W 19:37:23 10° S
Cosmos 1544 Rocket 4.4 19:29:30 10° NNW 19:33:43 55° W 19:37:57 10° S
Cosmos 2297 Rocket 3.5 19:31:59 10° NE 19:35:30 17° ENE 19:39:02 10° ESE
SPOT 3 Rocket 3.7 19:32:58 10° SSE 19:38:01 51° ENE 19:43:01 10° N
ATLAS CENTAUR R/B 4.3 19:34:58 10° WNW 19:38:38 25° WSW 19:42:26 10° SSW
SAR-Lupe-3 4.5 19:35:15 10° NNE 19:38:49 76° ESE 19:42:23 10° S
Delta 168 4.2 19:36:30 10° W 19:39:18 30° SSW 19:42:33 10° SE
Okean 2 4.4 19:37:34 10° SSW 19:41:35 49° W 19:45:33 10° N
ATLAS 3B R/B 3.9 19:38:22 10° NE 19:41:48 15° ENE 19:45:15 10° E
SL-16 R/B 2.8 19:36:39 10° S 19:41:49 36° ESE 19:46:20 13° NE
Cosmos 1184 Rocket 2.7 19:40:43 10° S 19:43:59 74° E 19:47:16 10° N
Okean 1-7 Rocket 3.9 19:40:47 10° S 19:45:09 69° W 19:49:29 10° N
Cosmos 2322 Rocket 2.6 19:44:04 10° S 19:49:21 42° ESE 19:53:32 15° NE
Meteor 1-15 Rocket 4.4 19:48:47 10° N 19:54:28 52° E 20:00:05 10° SSE
ATLAS 3B CENTAUR R/B 0.6 19:56:40 10° WSW 19:58:58 77° NNW 20:00:40 28° NE
Cosmos 1238 Rocket 4.4 19:56:02 10° SE 19:58:29 19° E 19:58:29 19° E
FENGYUN 3A 3.8 19:58:17 10° S 20:03:42 80° WSW 20:09:04 10° NNW
FUSE 4.3 20:01:56 10° SW 20:07:12 54° SSE 20:09:54 27° E
FengYun 1-2 T 4.4 20:02:31 10° SSE 20:07:49 47° ENE 20:13:09 10° N
Cosmos 158 Rocket 3.7 20:03:42 10° N 20:08:34 67° ENE 20:13:24 10° SSE
H-2A ROCKET BODY 4.0 20:02:23 10° WSW 20:08:38 82° NNW 20:28:43 24° NE
H-2A R/B 2.6 20:08:51 10° SSE 20:12:38 66° ENE 20:15:12 19° N
Meteor 1-21 4.4 20:07:40 10° S 20:13:15 49° E 20:16:05 27° NE
Delta 128 4.3 20:11:18 10° SW 20:15:48 46° SSE 20:17:38 32° E
USA 234 3.2 20:11:53 22° NE 20:16:19 85° SE 20:22:52 10° SW
S3M 4.1 20:12:30 10° S 20:18:43 74° W 20:24:50 10° N
Ariane H10-3 3.9 19:14:14 10° W 20:24:16 87° N 20:27:36 34° E
Ariane H10 4.3 20:22:28 10° WSW 20:26:03 29° S 20:27:10 23° SE
SEDSat Delta rocket 3.5 20:26:39 10° WNW 20:31:23 60° SW 20:33:26 29° SE
ALOS 4.4 20:28:32 10° SSW 20:32:25 26° WSW 20:36:18 10° NW
Cosmos 1269 Rocket 3.9 20:28:04 10° N 20:33:19 70° ENE 20:38:34 10° SSE
ARIANE 5 R/B 3.4 20:31:07 10° W 20:34:29 85° N 20:39:02 33° E
Cosmos 2082 3.5 20:32:12 10° NNW 20:37:48 78° ENE 20:43:27 10° SSE
Tiangong 2 3.3 20:36:13 10° W 20:38:16 22° WNW 20:38:16 22° WNW
USA 238 DEB 3.8 20:34:39 10° N 20:41:40 58° ENE 20:48:43 10° SE
USA 238 3.8 20:34:45 10° N 20:41:47 57° ENE 20:48:49 10° SE
BREEZE M DEB (TANK) 4.0 20:40:04 10° W 20:41:54 21° NW 20:41:54 21° NW
Cosmos 1371 Rocket 4.3 20:39:22 10° S 20:44:05 53° SE 20:44:05 53° SE
CZ-3A R/B 4.4 20:43:31 10° SSE 20:46:27 16° SE 20:46:27 16° SE
Cosmos 2360 Rocket 2.3 20:41:55 10° S 20:47:03 56° ESE 20:47:03 56° ESE
Cosmos 1606 Rocket 4.2 20:51:19 50° SSW 20:51:19 50° SSW 20:54:34 10° S
Cosmos 2227 Rocket 2.9 20:46:38 10° NNW 20:52:05 52° WSW 20:57:33 10° S
Cosmos 1626 Rocket 4.0 20:49:24 10° S 20:53:13 60° SW 20:53:13 60° SW
Lacrosse 5 rocket 4.0 20:55:28 10° W 20:57:09 12° WNW 20:57:55 12° NW
Milstar 3 Cent rocket 3.0 20:49:05 10° WSW 21:02:20 75° NNW 21:03:48 61° NNE
Cosmos 1340 Rocket 4.4 21:00:10 10° SSW 21:03:16 32° WSW 21:03:16 32° WSW
Cosmos 2315 Rocket 4.0 21:00:24 10° S 21:06:44 79° W 21:07:22 71° NNW
Cosmos 2297 Rocket 3.7 21:14:16 10° NW 21:19:15 33° WSW 21:24:17 10° SSW
Centaur D-1A AC-32 4.5 21:22:31 10° W 21:23:53 18° W 21:23:53 18° W
Ariane H10+ 4.2 21:05:27 10° W 21:26:19 88° N 21:26:44 83° ENE
ATLAS 3B R/B 3.3 21:25:58 10° NW 21:32:10 50° WSW 21:38:32 10° S
